CAPE
0 0 0 0 0 0 0 0 0 0 0 0 0 0 0 0 0 0 0 0 0 0 0 0 0 0 0 0 0 0 0 0 0 0 0 0 1575 2264 2647 2580 2528 2595 2514 2648 2890 2824 2511 2325 2070 1880 1789 1683 1644 1631 1794 1798 1750 1716 1710 1677 1601 1555 1578 1488 1490 1667 1654 1696 1648 1596 1498 1430 1296 1169 1028 977 1016 1017 1098 1181 1209 1197 1130 986 887 838
0 0 0 0 0 0 0 0 0 0 0 0 0 0 0 0 0 0 0 0 0 0 0 0 0 0 0 0 0 0 0 0 0 0 0 0 684 2312 2567 2563 2700 2624 2539 2584 2832 2934 2572 2428 2346 2033 1810 1712 1736 1771 1842 1828 1759 1729 1639 1608 1626 1580 1516 1497 1418 1665 1700 1663 1637 1545 1571 1504 1396 1212 934 945 926 1024 1060 1136 1216 1157 972 977 994 901
0 0 0 0 0 0 0 0 0 0 0 0 0 0 0 0 0 0 0 0 0 0 0 0 0 0 0 0 0 0 0 0 0 0 0 0 0 1421 2143 2624 2613 2634 2618 2602 2921 2987 2828 2490 2421 2259 1930 1836 1797 1829 1864 1814 1802 1699 1636 1565 1621 1560 1468 1474 1449 1470 1573 1655 1619 1489 1554 1470 1321 1124 952 916 963 1024 1045 1052 1057 987 893 916 882 873
0 0 0 0 0 0 0 0 0 0 0 0 0 0 0 0 0 0 0 0 0 0 0 0 0 0 0 0 0 0 0 0 0 0 0 0 0 218 1829 2298 2648 2644 2669 2678 2905 2988 2955 2682 2478 2283 2045 1943 1913 1920 1920 1916 1895 1823 1725 1626 1592 1428 1467 1413 1483 1424 1488 1536 1524 1396 1329 1256 1294 1132 946 874 960 982 973 941 823 904 962 936 825 826
0 0 0 0 0 0 0 0 0 0 0 0 0 0 0 0 0 0 0 0 0 0 0 0 0 0 0 0 0 0 0 0 0 0 0 0 0 0 554 2321 2611 2592 2688 2673 2870 3013 2900 2668 2510 2438 2265 2167 2137 2110 2088 2054 1979 1855 1778 1714 1518 1446 1398 1434 1409 1439 1439 1521 1461 1355 1309 1268 1252 1080 956 922 905 877 842 808 759 921 984 981 856 814
0 0 0 0 0 0 0 0 0 0 0 0 0 0 0 0 0 0 0 0 0 0 0 0 0 0 0 0 0 0 0 0 0 0 0 0 0 0 0 1698 2554 2591 2728 2668 2900 3002 2978 2768 2569 2416 2298 2249 2234 2218 2176 2122 2014 1886 1806 1778 1661 1530 1388 1354 1410 1407 1490 1529 1428 1426 1386 1354 1233 1050 944 906 852 790 766 822 848 882 891 832 775 824
0 0 0 0 0 0 0 0 0 0 0 0 0 0 0 0 0 0 0 0 0 0 0 0 0 0 0 0 0 0 0 0 0 0 0 0 0 0 0 1068 2448 2673 2772 2717 2924 2969 2922 2763 2606 2483 2385 2320 2321 2313 2236 2136 2022 1882 1807 1805 1706 1509 1391 1344 1421 1404 1493 1527 1428 1350 1370 1321 1239 1097 1016 928 884 918 922 907 909 884 881 836 841 824
0 0 0 0 0 0 0 0 0 0 0 0 0 0 0 0 0 0 0 0 0 0 0 0 0 0 0 0 0 0 0 0 0 0 0 0 0 0 0 329 2184 2710 2761 2702 2871 2913 2865 2760 2644 2508 2413 2370 2399 2362 2201 2072 1966 1878 1824 1766 1640 1480 1363 1541 1541 1522 1451 1520 1495 1433 1422 1371 1289 1168 1085 1033 1014 1020 1016 988 961 831 886 813 777 748
0 0 0 0 0 0 0 0 0 0 0 0 0 0 0 0 0 0 0 0 0 0 0 0 0 0 0 0 0 0 0 0 0 0 0 0 0 0 0 0 1785 2602 2619 2650 2823 2916 2863 2745 2578 2450 2443 2454 2399 2278 2157 2058 1965 1877 1791 1676 1568 1368 1309 1562 1612 1607 1515 1527 1538 1510 1464 1412 1337 1242 1126 1090 1082 1067 1038 994 824 802 898 857 714 630
0 0 0 0 0 0 0 0 0 0 0 0 0 0 0 0 0 0 0 1 1 0 0 0 0 0 0 0 0 0 0 0 0 0 0 0 0 0 0 42 1626 2458 2516 2609 2776 2804 2768 2641 2525 2458 2471 2449 2324 2187 2115 2036 1947 1868 1823 1726 1651 1465 1337 1555 1604 1634 1646 1588 1584 1540 1490 1414 1317 1234 1201 1171 1148 1101 1037 953 744 788 812 767 697 621
0 0 22 0 0 0 0 0 0 0 0 0 0 0 0 0 0 0 0 0 25 2 0 0 0 0 0 0 0 0 0 0 0 0 0 0 0 0 0 54 1616 2430 2496 2578 2682 2698 2637 2565 2512 2491 2459 2380 2209 2152 2078 1994 1922 1872 1898 1829 1719 1502 1441 1518 1607 1601 1684 1689 1657 1601 1504 1403 1280 1183 1207 1207 1156 1062 944 790 717 722 756 734 688 640
0 0 0 0 0 0 0 0 0 0 0 0 0 0 0 0 0 0 0 6 27 4 0 0 0 0 0 0 0 0 0 0 0 0 0 0 0 0 0 278 1645 2343 2489 2556 2593 2594 2551 2507 2542 2494 2378 2288 2193 2094 2006 1949 1916 1905 1943 1855 1696 1473 1528 1413 1610 1662 1674 1624 1647 1608 1540 1450 1289 1123 1082 1091 1049 930 864 805 742 715 672 643 636 604
0 0 0 0 14 0 0 0 0 0 0 0 0 0 0 0 0 0 0 1 7 0 0 0 0 0 0 0 0 0 0 0 0 0 0 0 0 0 0 352 1758 2263 2426 2473 2523 2494 2437 2410 2413 2341 2278 2208 2155 2061 1990 1971 1932 1961 1970 1857 1571 1478 1587 1508 1535 1651 1649 1589 1515 1467 1455 1428 1327 1194 1081 1038 977 896 850 798 745 712 658 597 562 535
0 0 0 0 0 0 0 0 0 0 0 0 0 0 0 0 0 0 0 0 0 0 0 0 0 0 0 0 0 0 0 0 0 0 0 0 0 0 0 364 1800 2238 2302 2405 2458 2398 2342 2343 2328 2258 2211 2169 2113 2058 2016 1994 1947 1960 1953 1847 1550 1508 1625 1545 1443 1536 1546 1511 1451 1411 1397 1333 1211 1142 1096 1040 929 841 797 771 741 715 661 602 533 492
0 0 0 0 0 0 0 0 0 0 0 0 0 0 0 0 0 0 0 0 0 0 0 0 0 0 0 0 0 0 0 0 0 0 0 0 0 0 0 590 1739 2179 2227 2363 2372 2338 2326 2317 2287 2250 2199 2168 2100 2069 2029 1980 1928 1928 1920 1816 1695 1695 1647 1572 1324 1438 1513 1507 1421 1374 1330 1278 1125 1073 1031 974 873 784 733 715 720 714 669 616 526 514
0 0 0 0 0 0 0 0 0 0 0 0 0 0 0 0 0 0 0 0 0 0 0 0 0 0 0 0 0 0 0 0 0 0 0 0 0 0 70 863 1602 2001 2180 2309 2328 2303 2336 2320 2275 2244 2217 2148 2071 2020 1950 1952 1944 1928 1917 1827 1747 1744 1707 1723 1368 1465 1513 1527 1477 1400 1322 1265 1182 1089 1029 919 812 738 707 692 662 634 588 583 564 506
0 0 0 3 0 0 0 0 0 0 0 0 0 0 0 0 0 0 0 0 0 1 0 0 0 0 0 0 0 0 0 0 0 0 0 0 0 0 315 1113 1589 1938 2134 2249 2271 2284 2338 2326 2268 2233 2208 2120 2014 1974 1923 1921 1920 1946 1888 1801 1744 1753 1709 1759 1502 1517 1525 1516 1493 1419 1323 1240 1124 1034 973 863 775 733 709 721 706 702 607 407 473 526
1 5 110 24 17 0 0 0 0 0 0 50 0 0 0 0 0 0 0 0 2 2 0 0 0 0 0 0 0 0 0 0 0 0 0 0 0 7 625 1333 1641 1908 2110 2204 2237 2256 2290 2316 2284 2242 2182 2102 1992 1934 1881 1904 1900 1876 1846 1788 1791 1842 1733 1738 1544 1565 1535 1522 1484 1426 1347 1265 1160 1054 973 882 778 722 717 690 664 675 561 346 415 528
0 3 2 0 0 4 0 0 0 0 0 0 0 0 8 9 1 0 0 19 3 0 0 0 0 0 0 0 0 0 0 0 0 0 0 0 0 0 712 1459 1720 1891 2049 2106 2135 2236 2304 2338 2331 2265 2214 2102 1983 1925 1907 1914 1875 1863 1837 1850 1911 1852 1733 1722 1530 1543 1534 1521 1491 1448 1383 1308 1237 1150 1028 894 796 762 717 653 668 666 273 354 449 489
0 5 1 1 13 23 1 0 1 0 0 0 0 5 26 15 47 0 0 29 0 0 0 0 0 0 0 0 0 0 0 0 0 0 0 0 0 15 628 1408 1742 1897 2008 2099 2149 2225 2273 2323 2303 2237 2172 2071 1968 1913 1904 1880 1845 1869 1907 1959 1898 1768 1712 1622 1521 1556 1553 1549 1538 1518 1474 1411 1337 1198 1040 918 835 771 689 688 648 99 2 392 447 490
19 1 9 7 10 24 6 0 0 7 8 0 22 9 4 3 0 0 6 3 0 0 1 0 0 0 0 0 0 0 0 0 0 0 0 0 0 46 596 1296 1734 1903 1989 2062 2120 2176 2220 2238 2215 2191 2130 2045 1941 1886 1850 1837 1831 1852 1954 1955 1884 1754 1689 1473 1531 1587 1595 1528 1489 1460 1430 1388 1277 1099 959 875 791 746 742 672 309 102 357 443 476 445
29 19 21 6 16 4 1 0 2 10 11 8 19 0 0 2 2 0 7 0 0 5 2 0 0 0 0 0 0 0 0 0 0 0 0 0 0 125 733 1263 1697 1889 1922 1988 2058 2144 2171 2168 2152 2129 2056 1962 1886 1846 1832 1794 1792 1854 1994 1972 1840 1770 1658 1445 1503 1572 1587 1532 1460 1381 1305 1180 1029 927 839 741 744 793 816 605 486 374 430 449 434 435
1 18 21 18 25 12 10 14 30 104 24 35 14 4 9 13 2 2 2 0 6 7 6 1 0 0 0 0 0 0 0 0 0 0 0 0 0 277 839 1244 1684 1830 1898 1961 2052 2104 2122 2148 2116 2019 1896 1831 1786 1798 1837 1809 1854 1904 1932 1895 1884 1862 1735 1422 1487 1548 1541 1500 1444 1353 1236 1062 855 786 686 670 771 919 897 814 618 386 422 428 444 422
0 14 7 10 34 1 1 23 191 361 80 36 19 14 8 1 2 2 4 7 9 14 5 9 0 1 0 0 0 0 0 0 0 0 0 0 0 323 844 1196 1686 1788 1892 1972 2042 2041 2079 2055 1997 1826 1720 1715 1725 1768 1820 1779 1839 1844 1858 1893 1946 1918 1760 1458 1415 1496 1515 1445 1354 1278 1174 1046 903 812 673 693 653 805 876 724 307 353 422 477 474 410
2 9 5 32 12 18 11 36 38 366 41 28 10 5 0 5 1 2 10 20 12 8 9 9 0 0 0 0 0 0 0 0 0 0 0 0 0 399 787 1216 1648 1779 1858 1943 1969 1974 1969 1936 1848 1712 1662 1682 1717 1708 1751 1730 1781 1764 1834 1900 1967 1888 1621 1403 1411 1410 1370 1351 1291 1216 1081 965 822 734 688 622 517 570 719 464 353 401 468 495 481 341
2 6 13 31 24 19 54 14 18 24 26 8 1 1 7 16 4 2 20 18 19 14 10 7 0 13 50 20 0 0 0 0 0 0 0 0 51 594 889 1233 1625 1797 1886 1937 1930 1901 1889 1879 1756 1655 1646 1656 1660 1618 1641 1670 1706 1714 1780 1938 1960 1800 1597 1336 1358 1341 1265 1226 1136 969 762 742 743 738 664 538 472 623 574 440 467 490 495 485 429 289
4 18 19 8 53 66 78 128 60 17 28 2 6 9 22 34 25 15 24 21 29 29 22 7 7 30 7 54 0 0 0 0 0 0 0 0 376 744 996 1246 1574 1728 1820 1887 1883 1840 1838 1810 1715 1615 1582 1567 1562 1557 1559 1528 1638 1678 1786 1906 1900 1841 1706 1406 1184 1147 1206 1192 982 825 724 750 750 812 756 531 458 566 532 517 489 506 507 476 382 250
98 0 0 23 58 62 92 128 80 51 15 28 23 28 41 40 18 25 28 24 28 22 23 22 227 100 54 168 95 4 0 0 0 0 0 98 646 845 1068 1285 1505 1673 1758 1808 1833 1832 1823 1782 1699 1601 1538 1499 1484 1511 1430 1426 1475 1618 1714 1810 1799 1722 1511 1293 1313 1298 1289 1181 965 854 719 774 738 818 716 500 465 533 539 529 483 492 479 404 283 220
0 0 0 9 29 53 124 121 64 38 5 18 34 46 25 24 16 14 20 20 39 19 18 79 202 137 199 302 329 264 82 0 0 0 0 430 780 941 1124 1261 1403 1557 1639 1681 1724 1753 1737 1702 1674 1560 1464 1416 1336 1321 1318 1311 1357 1489 1668 1773 1740 1627 1563 1429 1440 1446 1359 1128 939 862 690 675 705 708 602 423 496 555 555 506 482 472 426 314 0 0
0 0 3 5 35 40 38 45 22 17 0 5 21 33 2 13 3 30 25 28 31 19 64 208 283 348 288 457 457 295 220 5 0 2 187 668 871 1019 1196 1313 1448 1503 1515 1530 1588 1664 1685 1654 1592 1432 1373 1308 1238 1222 1269 1269 1402 1576 1718 1780 1753 1620 1503 1526 1504 1422 1275 1076 925 819 673 662 640 579 420 464 518 553 544 490 486 472 417 289 0 0
2 2 41 8 24 29 1 9 0 2 6 3 0 14 8 2 25 42 33 26 35 28 47 119 142 310 402 554 400 199 52 2 17 195 479 824 1072 1159 1239 1372 1457 1496 1526 1540 1574 1594 1614 1569 1434 1391 1367 1313 1250 1239 1243 1246 1387 1579 1703 1687 1584 1554 1560 1446 1464 1324 1237 1058 939 827 702 700 662 548 585 487 445 532 540 503 491 474 417 172 0 0
0 0 0 3 15 46 28 5 12 6 5 4 4 8 0 19 35 53 37 46 46 38 46 76 125 150 360 538 317 94 190 218 320 529 754 997 1227 1281 1295 1380 1437 1511 1564 1595 1614 1595 1521 1450 1392 1415 1417 1363 1328 1271 1218 1207 1250 1414 1475 1502 1423 1373 1313 1291 1267 1267 1292 1018 904 829 744 709 666 667 650 635 432 519 526 496 495 489 415 165 0 0
0 0 11 0 2 16 27 12 7 15 1 1 1 5 13 39 53 53 44 31 26 14 13 19 53 145 279 585 361 240 397 359 532 749 902 1104 1286 1335 1377 1399 1459 1528 1589 1614 1640 1594 1515 1474 1470 1487 1466 1421 1347 1285 1202 1170 1184 1229 1285 1199 1138 1177 1184 1162 1097 1170 1210 1053 946 857 814 729 659 749 790 828 553 492 524 501 482 465 358 0 0 0
0 0 0 0 0 0 0 4 7 8 9 6 0 2 35 24 39 51 39 22 8 1 114 0 33 96 467 652 528 437 643 596 693 833 1015 1209 1300 1379 1431 1449 1500 1532 1574 1633 1655 1616 1558 1538 1535 1518 1470 1401 1306 1238 1220 1186 1234 1193 1100 1051 1145 1238 1223 1211 1264 1272 1223 1085 1007 940 860 701 662 803 745 882 742 612 528 495 461 416 349 0 0 0
0 0 0 0 0 4 4 0 4 5 30 36 0 21 12 12 10 22 18 14 1 2 14 162 42 390 472 592 618 583 730 702 778 908 1088 1244 1361 1410 1440 1446 1493 1530 1596 1674 1651 1607 1572 1540 1518 1446 1395 1303 1223 1209 1218 1250 1244 1243 1144 1118 1201 1249 1229 1229 1284 1306 1263 1177 1115 958 848 707 520 640 819 866 786 648 539 473 418 391 366 266 0 0
0 0 0 0 0 3 0 0 3 21 15 7 21 0 3 24 25 40 38 25 7 0 0 2 126 273 547 453 637 613 672 773 785 858 1108 1308 1368 1418 1458 1441 1477 1554 1610 1649 1670 1628 1581 1512 1474 1411 1366 1275 1149 1159 1221 1284 1267 1323 1298 1228 1223 1192 1128 1164 1238 1258 1196 1211 1118 983 852 716 599 638 835 900 773 653 526 401 355 321 329 322 132 0
0 0 0 0 10 0 0 0 0 25 0 2 6 16 11 35 61 50 47 22 0 0 0 4 148 583 453 167 603 612 725 785 778 825 1034 1282 1433 1442 1419 1470 1507 1573 1622 1692 1732 1699 1634 1566 1506 1447 1350 1227 1112 1124 1210 1282 1285 1338 1358 1319 1280 1242 1170 1054 1017 988 953 958 981 951 860 734 752 816 839 804 696 592 497 364 304 278 230 229 194 0
0 0 0 2 0 2 1 0 0 0 0 0 3 0 288 256 150 16 6 0 0 0 0 2 28 478 470 144 154 625 697 842 782 809 921 1176 1413 1527 1526 1564 1556 1619 1662 1740 1780 1757 1708 1630 1546 1428 1306 1232 1128 1166 1242 1296 1292 1342 1353 1322 1256 1242 1194 1215 1110 1007 981 910 909 916 856 797 830 826 783 782 592 478 421 338 294 262 177 171 205 211
0 0 0 2 6 1 5 0 8 0 0 0 269 390 428 270 236 10 9 24 0 0 127 0 0 509 529 374 3 383 576 783 801 758 784 952 1193 1439 1550 1614 1641 1658 1685 1686 1709 1741 1690 1610 1541 1438 1327 1258 1117 1163 1218 1314 1369 1336 1340 1292 1289 1348 1362 1283 1215 1150 1115 946 910 928 914 807 817 758 746 829 544 425 461 358 278 209 163 123 82 74
0 13 14 0 2 2 3 28 4 0 5 202 448 424 293 227 116 16 15 12 19 291 260 0 223 455 312 378 83 1 381 509 570 691 728 752 784 896 1188 1474 1578 1664 1674 1647 1572 1567 1568 1557 1484 1421 1393 1312 1141 1099 1190 1328 1374 1348 1300 1281 1320 1375 1419 1374 1322 1253 1187 935 784 800 818 799 774 713 752 780 456 415 480 388 241 184 148 110 74 55
0 0 0 0 0 0 0 2 2 10 0 306 429 361 250 182 0 1 1 6 412 609 251 0 219 321 304 382 250 292 424 154 308 403 413 559 695 744 841 959 1104 1373 1482 1504 1470 1412 1453 1520 1521 1498 1468 1329 1140 1095 1171 1296 1326 1371 1371 1412 1442 1447 1474 1465 1440 1330 1082 913 944 901 882 913 835 850 735 600 419 399 393 309 215 215 170 155 110 48
1 0 0 3 3 0 0 3 7 46 152 363 354 373 439 3 15 0 365 698 934 783 285 284 432 524 641 817 512 538 547 464 527 500 686 713 839 1080 1188 1125 912 1004 1273 1307 1290 1354 1461 1520 1562 1547 1484 1373 1301 1175 1174 1252 1286 1309 1359 1439 1515 1535 1525 1499 1482 1454 1310 1273 1193 1157 1120 997 892 815 696 528 376 316 307 308 291 272 226 175 110 75
1 1 5 14 10 0 0 3 6 9 402 319 169 421 562 308 886 249 908 1138 1148 978 889 818 762 925 1087 1004 830 693 658 688 717 657 654 832 975 1193 1330 1215 1128 1213 1223 1186 1337 1438 1532 1613 1611 1591 1550 1496 1385 1201 1180 1170 1247 1323 1445 1460 1522 1611 1515 1470 1473 1511 1475 1378 1274 1186 1096 919 807 762 681 575 432 411 444 438 398 336 282 115 172 94
0 10 8 6 0 109 15 0 12 83 180 247 510 139 921 693 688 807 701 888 1143 1045 1096 1057 1160 1210 1137 1049 1018 836 819 759 822 736 751 786 1044 1162 1308 1387 1237 1171 1238 1318 1449 1584 1645 1677 1655 1625 1595 1516 1363 1190 1194 1176 1217 1309 1390 1458 1374 1361 1430 1548 1625 1599 1485 1403 1239 961 871 818 794 814 750 670 515 519 548 532 479 434 377 284 233 194
19 22 20 0 68 0 0 0 0 218 103 70 299 672 691 770 703 714 793 501 782 1035 1064 1168 1230 1274 1206 1172 1125 1054 952 1000 842 804 741 761 1045 1161 1102 1146 1265 1209 1309 1378 1444 1500 1421 1317 1496 1553 1535 1338 1249 1195 1158 1163 1244 1294 1364 1345 1334 1303 1371 1435 1482 1431 1341 1198 998 842 746 726 795 838 804 732 610 615 618 578 488 464 371 274 243 206
32 4 14 1 46 5 4 0 0 282 298 255 81 475 612 707 662 626 762 879 1041 961 1151 1283 1232 1240 1235 1270 1339 1257 1197 1131 1117 961 809 763 926 1174 1051 1074 1187 1221 1440 1329 1218 1131 1287 1142 1237 1108 1184 1244 1294 1287 1236 1238 1356 1360 1221 1020 1105 1277 1432 1478 1434 1346 1273 1156 984 809 781 824 845 834 791 761 762 674 624 553 447 405 316 330 308 307
8 1 10 0 113 0 72 11 210 258 214 216 282 160 371 463 432 390 547 626 752 874 995 1167 1187 1189 1214 1198 1194 1211 1179 1237 1234 1173 1108 845 725 1005 1191 940 662 737 967 1073 1006 1162 1219 1179 844 723 907 1132 1222 1302 1280 1473 1340 1266 1030 924 1005 1216 1412 1482 1495 1371 1252 1136 934 872 819 797 752 699 669 679 725 701 628 544 488 388 316 294 111 105
16 12 19 16 74 35 1 0 149 57 56 243 224 271 314 304 90 362 320 452 508 609 636 704 891 1032 1189 1225 1199 1201 1100 928 725 508 364 450 700 684 521 616 784 928 1094 1177 1132 1038 1130 1041 913 822 817 1081 1113 1153 1212 1200 1379 1174 1099 1086 1063 1251 1216 1084 1121 1130 1108 1057 952 1000 975 897 811 725 618 667 701 665 574 475 414 322 258 254 197 125
6 3 10 2 14 56 6 15 126 120 90 116 92 186 277 296 247 372 220 176 330 300 626 677 664 661 730 818 811 750 639 508 452 385 356 577 751 598 531 664 783 672 757 817 883 1040 993 943 941 847 1114 1258 1099 1212 1357 1394 1300 1207 1260 1304 1187 996 923 988 1009 1070 1066 968 885 897 927 934 842 689 608 616 583 564 551 452 350 207 229 221 208 181
18 13 17 42 1 4 18 54 111 65 67 20 191 96 155 169 187 236 303 212 282 340 592 769 741 730 717 671 578 570 653 753 786 720 778 841 800 657 686 784 773 695 595 615 745 802 690 789 934 1079 1201 1164 1122 1156 1306 1276 1236 1254 1299 1235 1116 987 968 974 956 929 922 818 764 697 673 701 698 638 641 640 594 571 568 504 347 221 179 220 199 191
21 27 19 3 24 28 84 118 61 52 59 80 146 47 126 169 237 324 343 392 480 459 570 857 858 701 547 572 694 792 830 862 880 919 922 883 823 754 735 736 754 694 698 826 809 917 1018 1024 1094 1186 1299 1228 1086 1078 1048 1094 1127 1157 1171 1102 1028 969 937 918 908 854 693 696 570 529 528 607 637 663 706 712 673 644 650 624 443 331 237 178 167 191
Wind_Speed
nan nan nan nan nan nan nan nan nan nan nan nan nan nan nan nan nan nan nan nan nan nan nan nan nan nan nan nan nan nan nan nan nan nan nan nan 51 49 47 44 43 42 42 48 53 53 53 56 57 61 62 58 55 52 45 41 41 41 38 36 35 33 34 35 35 33 33 33 32 33 34 33 31 30 29 27 23 21 21 22 22 22 21 20 20 19
nan nan nan nan nan nan nan nan nan nan nan nan nan nan nan nan nan nan nan nan nan nan nan nan nan nan nan nan nan nan nan nan nan nan nan nan 51 52 52 52 50 49 55 60 63 60 60 60 60 61 61 59 57 48 42 39 38 37 35 33 33 33 33 34 34 32 31 31 32 34 35 34 32 31 29 25 21 21 21 21 21 21 20 20 21 21
nan nan nan nan nan nan nan nan nan nan nan nan nan nan nan nan nan nan nan nan nan nan nan nan nan nan nan nan nan nan nan nan nan nan nan nan nan 50 52 52 55 60 60 61 59 58 59 60 61 60 57 53 51 47 41 37 35 33 30 29 31 32 32 32 33 32 31 31 34 36 34 35 31 26 25 24 21 20 22 20 20 20 20 21 21 21
nan nan nan nan nan nan nan nan nan nan nan nan nan nan nan nan nan nan nan nan nan nan nan nan nan nan nan nan nan nan nan nan nan nan nan nan nan 47 46 49 53 56 58 57 57 55 56 58 60 58 51 47 45 42 38 35 33 29 26 26 30 31 31 31 30 31 32 34 35 36 36 34 31 26 23 22 21 20 21 21 19 19 20 21 22 22
nan nan nan nan nan nan nan nan nan nan nan nan nan nan nan nan nan nan nan nan nan nan nan nan nan nan nan nan nan nan nan nan nan nan nan nan nan nan 47 46 50 53 53 54 53 53 55 56 55 52 47 44 42 40 38 34 31 27 28 29 30 31 30 30 30 32 34 36 37 37 36 33 31 25 23 22 20 20 20 21 20 20 20 22 23 24
nan nan nan nan nan nan nan nan nan nan nan nan nan nan nan nan nan nan nan nan nan nan nan nan nan nan nan nan nan nan nan nan nan nan nan nan nan nan nan 46 48 51 52 54 53 52 51 51 52 49 44 40 37 37 35 32 30 30 31 32 30 30 29 30 30 32 34 35 36 35 34 30 26 24 22 22 24 21 22 22 20 21 22 23 24 25
nan nan nan nan nan nan nan nan nan nan nan nan nan nan nan nan nan nan nan nan nan nan nan nan nan nan nan nan nan nan nan nan nan nan nan nan nan nan nan 46 49 49 50 50 51 50 49 49 49 45 40 36 34 33 33 30 30 32 34 33 29 29 29 29 29 31 33 34 32 31 28 25 23 24 19 19 20 22 20 22 23 22 22 23 25 24
nan nan nan nan nan nan nan nan nan nan nan nan nan nan nan nan nan nan nan nan nan nan nan nan nan nan nan nan nan nan nan nan nan nan nan nan nan nan nan 45 45 43 45 47 46 45 45 45 43 40 36 32 29 31 30 29 30 32 34 32 28 29 29 27 28 29 31 32 30 28 25 24 22 22 21 22 22 21 23 24 24 23 23 23 24 24
nan nan nan nan nan nan nan nan nan nan nan nan nan nan nan nan nan nan nan nan nan nan nan nan nan nan nan nan nan nan nan nan nan nan nan nan nan nan nan nan 40 39 42 43 40 38 38 38 37 37 34 26 26 26 26 27 29 32 34 31 29 29 28 25 27 29 29 29 27 26 25 24 21 22 23 23 23 24 24 26 23 24 24 24 24 23
nan nan nan nan nan nan nan nan nan nan nan nan nan nan nan nan nan nan nan nan nan nan nan nan nan nan nan nan nan nan nan nan nan nan nan nan nan nan nan nan 38 40 41 38 35 33 33 34 34 30 25 21 20 22 24 28 31 32 34 31 29 28 26 25 27 28 27 27 26 25 25 26 24 23 25 25 25 24 24 25 24 24 25 25 24 22
nan nan nan nan nan nan nan nan nan nan nan nan nan nan nan nan nan nan nan nan nan nan nan nan nan nan nan nan nan nan nan nan nan nan nan nan nan nan nan nan 39 41 40 36 32 31 32 32 28 23 18 18 21 22 25 27 29 31 32 30 28 26 26 25 27 27 26 25 25 25 25 26 27 27 28 27 26 25 25 25 24 25 25 24 23 22
nan nan nan nan nan nan nan nan nan nan nan nan nan nan nan nan nan nan nan nan nan nan nan nan nan nan nan nan nan nan nan nan nan nan nan nan nan nan nan 40 40 41 41 37 34 34 35 33 27 22 20 22 24 25 25 26 27 29 29 27 27 26 26 25 26 27 26 25 25 24 25 26 27 29 28 28 27 25 26 25 26 25 24 23 22 22
nan nan nan nan nan nan nan nan nan nan nan nan nan nan nan nan nan nan nan nan nan nan nan nan nan nan nan nan nan nan nan nan nan nan nan nan nan nan nan 36 38 41 41 39 38 38 35 30 26 23 20 22 26 25 25 27 28 29 28 27 27 25 25 25 26 27 26 25 24 25 26 27 27 29 28 26 25 24 25 25 25 24 23 22 23 22
nan nan nan nan nan nan nan nan nan nan nan nan nan nan nan nan nan nan nan nan nan nan nan nan nan nan nan nan nan nan nan nan nan nan nan nan nan nan nan 34 37 38 40 40 39 38 33 27 23 22 20 21 25 24 24 27 28 28 27 26 26 26 26 26 26 27 27 25 24 25 26 27 28 28 26 24 25 24 24 25 25 24 23 23 22 22
nan nan nan nan nan nan nan nan nan nan nan nan nan nan nan nan nan nan nan nan nan nan nan nan nan nan nan nan nan nan nan nan nan nan nan nan nan nan nan 30 34 37 39 39 39 36 30 25 22 20 19 22 24 24 24 25 26 26 26 26 26 27 26 26 26 26 27 25 25 25 27 28 27 27 24 23 23 25 25 25 25 23 22 23 22 23
nan nan nan nan nan nan nan nan nan nan nan nan nan nan nan nan nan nan nan nan nan nan nan nan nan nan nan nan nan nan nan nan nan nan nan nan nan nan nan 31 34 38 39 38 36 33 27 23 20 19 20 22 23 23 23 24 25 24 24 26 26 27 27 27 26 25 26 26 25 26 28 28 27 24 24 24 23 24 25 25 25 23 22 21 23 22
nan nan nan nan nan nan nan nan nan nan nan nan nan nan nan nan nan nan nan nan nan nan nan nan nan nan nan nan nan nan nan nan nan nan nan nan nan nan 32 30 33 36 37 36 33 30 26 21 19 19 21 23 23 23 22 22 23 23 25 27 27 28 29 28 26 26 26 27 27 27 28 27 26 25 25 24 25 26 25 25 24 23 21 21 22 22
nan nan 12 nan nan nan nan nan nan nan nan nan nan nan nan nan nan nan nan nan nan nan nan nan nan nan nan nan nan nan nan nan nan nan nan nan nan nan 31 28 30 31 31 31 31 28 25 21 19 20 21 22 22 22 21 21 23 25 26 26 28 29 29 28 28 27 26 27 27 27 26 25 24 24 24 24 26 26 25 24 22 20 21 21 21 21
nan nan nan nan nan nan nan nan nan nan nan nan nan nan nan nan nan nan nan nan nan nan nan nan nan nan nan nan nan nan nan nan nan nan nan nan nan nan 29 27 27 28 29 29 29 26 22 20 20 22 21 21 22 21 21 24 26 27 27 26 28 29 30 30 27 26 26 27 25 24 24 23 23 23 23 23 25 25 25 23 20 19 20 21 20 19
nan nan nan nan nan nan nan nan nan nan nan nan nan nan nan nan nan nan nan nan nan nan nan nan nan nan nan nan nan nan nan nan nan nan nan nan nan nan 28 29 29 28 28 25 23 20 17 18 21 21 22 24 23 23 24 26 27 27 27 28 29 31 30 28 26 25 26 25 25 23 21 21 22 22 23 24 25 24 23 20 19 nan nan 20 17 16
nan nan nan nan nan nan nan nan nan nan nan nan nan nan nan nan nan nan nan nan nan nan nan nan nan nan nan nan nan nan nan nan nan nan nan nan nan nan 25 29 27 24 24 21 19 17 16 18 20 21 24 25 26 26 27 26 25 26 28 27 29 29 26 24 23 23 24 25 23 22 21 21 21 22 22 24 24 23 20 17 17 18 17 16 15 15
nan nan nan nan nan nan nan nan nan nan nan nan nan nan nan nan nan nan nan nan nan nan nan nan nan nan nan nan nan nan nan nan nan nan nan nan nan 22 22 24 23 19 18 18 17 17 18 19 21 25 29 30 28 27 26 26 27 27 26 25 26 25 22 21 21 22 23 22 21 20 20 20 20 21 22 23 23 21 17 16 15 16 16 16 15 15
nan nan nan nan nan nan nan nan nan 39 nan nan nan nan nan nan nan nan nan nan nan nan nan nan nan nan nan nan nan nan nan nan nan nan nan nan nan 23 21 21 18 16 14 14 16 17 19 20 23 26 27 26 25 25 26 27 25 24 24 25 23 22 19 20 21 21 21 20 18 19 19 20 20 21 22 23 21 18 16 15 15 15 17 16 15 14
nan nan nan nan nan nan nan nan 37 48 nan nan nan nan nan nan nan nan nan nan nan nan nan nan nan nan nan nan nan nan nan nan nan nan nan nan nan 23 22 20 18 14 14 16 16 17 20 23 25 27 26 25 26 27 27 26 24 24 23 22 21 19 19 20 21 21 19 17 17 18 19 20 20 21 21 21 19 17 15 15 15 16 17 16 15 15
nan nan nan nan nan nan nan nan nan 53 nan nan nan nan nan nan nan nan nan nan nan nan nan nan nan nan nan nan nan nan nan nan nan nan nan nan nan 22 20 19 15 12 13 14 15 16 21 24 24 23 24 24 25 26 27 25 23 22 21 20 18 17 19 20 20 20 17 16 17 18 18 20 20 20 20 19 17 17 16 16 16 16 17 16 14 13
nan nan nan nan nan nan nan nan nan nan nan nan nan nan nan nan nan nan nan nan nan nan nan nan nan nan nan nan nan nan nan nan nan nan nan nan nan 21 19 17 13 9 8 10 12 16 18 19 20 22 22 24 26 26 25 23 21 20 19 17 17 17 18 19 19 18 16 15 17 17 19 19 19 19 20 19 17 17 17 16 16 16 15 14 14 12
nan nan nan nan nan nan nan 50 nan nan nan nan nan nan nan nan nan nan nan nan nan nan nan nan nan nan nan nan nan nan nan nan nan nan nan nan 23 22 19 14 10 8 9 12 13 14 17 19 19 19 21 23 24 25 23 22 20 19 18 16 15 16 17 17 18 17 15 15 17 17 18 19 18 18 19 18 17 17 16 15 15 16 15 12 13 13
nan nan nan nan nan nan nan 44 nan nan nan nan nan nan nan nan nan nan nan nan nan nan nan nan 34 nan nan 30 nan nan nan nan nan nan nan nan 25 24 19 14 10 10 12 14 15 17 16 16 18 20 21 23 24 24 23 22 20 19 17 15 15 15 16 17 17 16 15 16 16 17 18 18 18 18 19 18 18 16 15 14 14 14 14 13 13 13
nan nan nan nan nan nan 34 37 nan nan nan nan nan nan nan nan nan nan nan nan nan nan nan nan 43 33 29 29 29 25 nan nan nan nan nan 23 25 24 20 17 14 13 13 15 16 16 16 17 18 19 21 22 24 23 23 22 20 18 16 15 14 15 16 18 17 15 15 15 16 17 18 18 18 18 19 19 17 16 14 13 13 14 14 13 nan nan
nan nan nan nan nan nan nan nan nan nan nan nan nan nan nan nan nan nan nan nan nan nan nan 44 42 35 29 30 30 27 24 nan nan nan 25 24 24 22 20 19 16 14 12 13 15 16 15 16 17 19 21 22 22 21 21 20 18 16 14 13 13 15 17 18 17 16 16 15 16 18 19 18 18 18 20 19 16 15 14 14 13 14 14 14 nan nan
nan nan nan nan nan nan nan nan nan nan nan nan nan nan nan nan nan nan nan nan nan nan nan 47 42 38 30 27 29 29 nan nan nan 25 23 21 20 18 18 17 16 11 10 13 16 15 15 16 18 20 21 20 19 18 18 17 16 15 14 13 13 15 18 18 17 16 15 15 17 19 19 19 18 19 19 18 17 15 15 14 14 14 14 15 nan nan
nan nan nan nan nan nan nan nan nan nan nan nan nan nan nan nan nan nan nan nan nan nan nan nan 46 39 34 36 32 nan 26 27 27 26 24 20 17 17 17 17 14 10 11 14 14 15 16 17 18 19 18 17 17 17 17 17 16 16 14 13 13 17 19 18 17 16 15 16 18 19 19 18 19 19 19 19 17 16 16 16 16 15 15 16 nan nan
nan nan nan nan nan nan nan nan nan nan nan nan nan nan nan nan nan nan nan nan nan nan nan nan nan 33 33 35 32 36 33 31 29 27 26 22 20 19 20 17 13 11 12 14 15 14 14 15 15 16 16 17 16 15 15 16 17 16 14 14 16 20 19 19 17 16 15 16 18 18 19 18 18 19 19 19 18 17 17 17 17 17 17 nan nan nan
nan nan nan nan nan nan nan nan nan nan nan nan nan nan nan nan nan nan nan nan nan nan 42 nan nan nan 41 38 38 38 38 34 31 32 28 25 23 18 18 16 13 12 13 15 13 12 13 14 16 16 15 15 15 16 18 18 18 18 18 18 19 21 20 19 17 15 15 16 17 18 18 18 18 18 19 19 19 18 18 18 18 18 18 nan nan nan
nan nan nan nan nan nan nan nan nan nan nan nan nan nan nan nan nan nan nan nan nan nan nan 45 nan 43 41 40 40 40 36 34 38 36 33 26 21 20 16 15 16 17 16 15 14 14 15 15 16 18 19 18 18 20 21 21 21 21 20 20 21 21 21 19 16 15 16 17 17 18 18 18 17 18 19 19 19 19 19 19 19 19 19 20 nan nan
nan nan nan nan nan nan nan nan nan nan nan nan nan nan nan nan nan nan nan nan nan nan nan nan 42 40 40 40 38 34 33 33 37 37 32 29 24 20 20 17 17 18 17 16 14 14 15 15 15 15 16 19 21 21 21 20 22 22 21 21 22 21 19 17 16 16 17 18 18 18 18 18 17 18 19 19 18 18 19 18 19 20 20 21 21 nan
nan nan nan nan nan nan nan nan nan nan nan nan nan nan nan nan nan nan nan nan nan nan nan nan 38 39 39 38 36 32 31 36 38 34 30 28 27 24 19 17 16 13 13 13 13 13 13 14 16 18 21 21 21 22 22 23 23 23 23 22 21 20 18 16 16 18 19 20 20 19 19 18 18 18 19 18 18 18 18 19 19 20 21 22 22 nan
nan nan nan nan nan nan nan nan nan nan nan nan nan nan 25 24 31 nan nan nan nan nan nan nan nan 32 33 30 31 33 35 37 33 27 24 24 22 25 27 26 23 20 16 16 20 24 24 23 24 23 22 23 23 23 25 25 24 23 22 21 19 18 17 17 18 21 23 22 22 21 21 20 19 19 19 18 17 17 18 19 20 21 22 24 25 25
nan nan nan nan nan nan nan nan nan nan nan nan 30 26 26 29 36 nan nan nan nan nan 35 nan nan 30 28 29 nan 33 34 31 23 19 22 26 25 21 20 22 20 19 19 20 21 23 23 23 23 24 26 26 25 25 27 26 24 22 20 19 17 18 18 18 21 22 22 22 22 22 22 21 20 19 18 17 16 18 19 21 22 23 24 24 nan nan
nan nan nan nan nan nan nan nan nan nan nan 31 30 26 28 28 25 nan nan nan nan 37 40 nan 35 32 34 34 nan nan 34 27 22 19 26 31 31 34 30 22 17 17 16 18 23 23 24 27 28 28 26 25 25 27 27 25 22 21 20 18 18 19 19 19 21 21 21 20 19 19 19 19 19 18 17 17 18 19 21 24 25 25 26 26 nan nan
nan nan nan nan nan nan nan nan nan nan nan 30 30 27 28 24 nan nan nan nan 32 39 40 nan 41 41 41 41 40 39 33 27 24 23 30 36 41 42 41 39 29 22 19 22 25 28 27 25 24 24 25 26 28 28 26 24 22 21 21 20 20 19 19 20 21 20 17 16 14 14 14 14 14 16 16 17 18 20 22 23 24 26 27 28 30 nan
nan nan nan nan nan nan nan nan nan nan 31 34 34 29 23 nan nan nan 26 29 34 37 37 38 41 43 43 44 40 37 28 25 26 30 35 38 37 39 43 45 44 42 38 33 28 27 28 27 28 30 31 30 29 27 25 24 23 22 22 21 19 19 20 20 18 16 14 13 11 12 11 11 12 15 16 17 19 20 21 22 24 26 27 29 31 nan
nan nan nan nan nan nan nan nan nan nan 34 42 39 28 26 20 17 25 36 37 29 34 35 39 38 38 38 39 35 32 30 28 28 29 31 35 38 39 41 43 44 45 43 40 37 35 31 31 30 30 32 31 30 28 26 24 23 22 22 20 20 21 20 19 17 15 15 14 14 14 14 14 16 17 18 19 21 22 24 25 26 26 27 28 30 nan
nan nan nan nan nan 28 nan nan nan nan 35 39 38 26 26 22 23 26 30 31 35 34 36 34 36 34 34 35 32 32 31 30 28 29 31 32 34 35 35 36 40 42 43 43 46 50 49 44 39 37 34 32 29 27 25 23 23 22 20 18 20 20 19 18 18 18 17 16 17 18 17 17 18 20 21 23 24 25 26 27 28 28 27 28 28 28
nan nan nan nan nan nan nan nan nan 35 36 nan 35 27 22 26 25 26 28 26 27 35 33 31 30 31 31 33 32 29 31 29 27 27 30 29 30 32 34 38 40 40 41 43 44 42 40 42 46 46 41 34 29 27 24 22 22 20 19 21 22 21 19 19 20 20 20 20 20 20 20 20 20 21 23 24 26 26 27 28 29 29 27 28 28 28
nan nan nan nan nan nan nan nan nan 36 40 44 nan 37 33 29 29 30 35 34 32 32 31 28 28 27 28 29 32 32 29 26 29 29 29 29 30 31 35 39 40 39 37 36 33 32 32 36 41 42 39 37 31 27 24 22 20 19 21 24 24 22 22 22 22 22 22 22 21 21 22 23 22 23 24 25 24 26 26 28 28 28 27 27 28 28
nan nan nan nan 11 nan nan nan 34 38 42 45 48 47 43 40 36 35 42 39 36 34 34 34 31 29 28 28 30 28 27 26 28 26 25 26 27 28 31 32 31 32 32 30 31 35 36 36 36 34 30 30 29 26 26 25 23 24 26 25 25 25 24 23 23 23 23 23 22 22 23 25 24 25 25 25 25 25 25 26 26 27 26 26 27 28
nan nan nan nan nan nan nan nan 33 nan nan 40 41 43 45 43 nan 38 44 44 37 31 34 35 31 30 29 32 30 33 31 29 30 28 26 24 25 27 29 30 32 33 33 32 30 31 34 34 34 32 29 28 27 27 27 26 26 26 26 26 26 26 26 24 23 23 23 24 24 24 24 25 28 28 26 25 25 26 26 25 26 26 26 26 28 30
nan nan nan nan nan nan nan nan 25 34 nan 36 nan 39 37 36 34 41 50 44 31 32 43 49 40 34 35 35 35 38 38 34 30 27 26 24 26 25 26 27 28 30 32 34 32 31 34 34 35 34 33 30 28 28 28 29 28 26 26 26 26 26 27 25 25 25 25 25 25 25 25 25 25 25 26 25 25 25 26 26 26 26 25 25 27 29
nan nan nan nan nan nan nan nan 20 nan nan nan 39 nan 37 33 32 41 47 37 27 34 45 53 50 44 40 37 39 40 39 34 29 25 23 22 22 23 23 25 24 24 23 27 29 32 36 37 39 39 35 31 29 28 28 29 28 27 27 28 27 26 27 26 26 25 24 24 25 25 26 25 24 24 25 26 27 29 29 30 32 28 27 27 26 26
nan nan nan nan nan nan nan 16 nan nan nan nan 27 nan 37 34 33 37 39 31 31 37 42 49 52 47 43 41 39 40 37 33 28 24 22 20 19 18 18 19 19 18 19 21 26 32 35 37 40 38 33 29 29 29 28 29 28 27 27 27 26 26 26 26 25 24 24 24 24 25 26 25 25 25 26 27 29 30 32 32 32 36 36 32 31 30
Wind_Direction
nan nan nan nan nan nan nan nan nan nan nan nan nan nan nan nan nan nan nan nan nan nan nan nan nan nan nan nan nan nan nan nan nan nan nan nan 225 227 232 238 242 247 254 256 260 264 265 267 268 269 272 275 278 288 298 297 296 298 297 294 290 287 287 284 281 281 284 286 286 286 289 291 293 294 298 306 309 310 311 312 313 317 321 323 321 318
nan nan nan nan nan nan nan nan nan nan nan nan nan nan nan nan nan nan nan nan nan nan nan nan nan nan nan nan nan nan nan nan nan nan nan nan 233 231 235 240 244 247 244 250 254 258 261 263 267 269 272 276 283 291 298 299 300 300 297 296 288 284 285 282 280 280 282 284 285 285 288 286 286 294 302 306 306 305 307 309 313 319 322 320 318 316
nan nan nan nan nan nan nan nan nan nan nan nan nan nan nan nan nan nan nan nan nan nan nan nan nan nan nan nan nan nan nan nan nan nan nan nan nan 235 236 241 246 246 249 252 257 261 264 266 269 272 275 280 289 296 298 297 300 301 296 291 284 283 281 278 279 278 278 276 276 279 280 285 286 289 299 303 300 302 307 310 315 317 316 312 311 313
nan nan nan nan nan nan nan nan nan nan nan nan nan nan nan nan nan nan nan nan nan nan nan nan nan nan nan nan nan nan nan nan nan nan nan nan nan 240 243 243 248 251 253 256 258 262 265 268 271 272 277 282 286 290 292 298 304 299 292 283 280 280 277 276 277 277 272 274 273 274 279 282 287 295 292 292 295 301 306 312 315 311 310 311 313 313
nan nan nan nan nan nan nan nan nan nan nan nan nan nan nan nan nan nan nan nan nan nan nan nan nan nan nan nan nan nan nan nan nan nan nan nan nan nan 243 246 253 258 260 261 262 264 266 269 273 279 282 283 287 290 295 302 302 293 291 282 279 277 275 274 276 277 273 272 272 273 275 279 280 282 290 294 298 308 314 314 314 314 310 311 312 312
nan nan nan nan nan nan nan nan nan nan nan nan nan nan nan nan nan nan nan nan nan nan nan nan nan nan nan nan nan nan nan nan nan nan nan nan nan nan nan 242 245 253 260 264 266 267 269 272 272 273 278 283 285 290 295 299 296 288 281 277 275 273 273 275 279 278 276 279 281 283 287 292 293 300 304 311 315 318 324 325 317 312 311 308 307 310
nan nan nan nan nan nan nan nan nan nan nan nan nan nan nan nan nan nan nan nan nan nan nan nan nan nan nan nan nan nan nan nan nan nan nan nan nan nan nan 241 243 245 246 252 260 262 264 264 267 272 277 282 286 288 290 291 288 284 278 275 276 275 272 276 279 279 278 278 281 289 293 294 300 301 293 299 311 316 316 314 317 315 310 307 306 307
nan nan nan nan nan nan nan nan nan nan nan nan nan nan nan nan nan nan nan nan nan nan nan nan nan nan nan nan nan nan nan nan nan nan nan nan nan nan nan 242 248 250 252 251 253 259 265 271 275 280 284 286 290 286 287 286 282 281 277 278 279 274 277 278 278 280 280 280 282 286 287 289 292 299 304 308 308 306 307 308 310 309 309 306 304 305
nan nan nan nan nan nan nan nan nan nan nan nan nan nan nan nan nan nan nan nan nan nan nan nan nan nan nan nan nan nan nan nan nan nan nan nan nan nan nan nan 251 255 256 257 258 264 269 274 279 282 287 286 280 283 288 285 281 276 274 277 275 277 279 280 280 278 278 280 284 285 285 289 290 298 303 303 303 304 304 302 301 303 304 303 302 299
nan nan nan nan nan nan nan nan nan nan nan nan nan nan nan nan nan nan nan nan nan nan nan nan nan nan nan nan nan nan nan nan nan nan nan nan nan nan nan nan 253 255 257 260 267 270 272 276 281 286 286 283 283 282 280 276 275 273 270 275 279 280 280 280 276 276 278 280 282 283 290 295 296 298 299 301 304 303 302 300 298 299 302 304 300 293
nan nan nan nan nan nan nan nan nan nan nan nan nan nan nan nan nan nan nan nan nan nan nan nan nan nan nan nan nan nan nan nan nan nan nan nan nan nan nan nan 251 256 260 262 265 268 269 267 270 272 284 285 272 270 273 275 278 272 271 276 280 281 277 278 276 277 281 280 284 288 295 300 302 302 303 303 303 302 300 299 298 299 301 301 299 293
nan nan nan nan nan nan nan nan nan nan nan nan nan nan nan nan nan nan nan nan nan nan nan nan nan nan nan nan nan nan nan nan nan nan nan nan nan nan nan 244 250 258 262 266 267 263 260 259 258 265 280 279 273 270 272 271 273 272 271 274 278 276 277 277 275 277 281 281 286 289 296 300 302 303 305 309 310 310 306 301 299 298 297 295 293 293
nan nan nan nan nan nan nan nan nan nan nan nan nan nan nan nan nan nan nan nan nan nan nan nan nan nan nan nan nan nan nan nan nan nan nan nan nan nan nan 250 250 255 262 265 264 264 266 272 277 282 283 271 269 275 276 276 275 273 272 274 276 275 274 277 275 278 281 282 286 291 295 297 299 303 305 307 308 308 305 303 302 303 300 296 293 295
nan nan nan nan nan nan nan nan nan nan nan nan nan nan nan nan nan nan nan nan nan nan nan nan nan nan nan nan nan nan nan nan nan nan nan nan nan nan nan 250 251 254 260 263 265 269 275 281 285 289 281 271 268 272 275 274 273 272 270 269 271 272 271 272 275 277 282 285 286 289 293 295 297 301 303 303 305 304 302 302 304 304 301 297 295 294
nan nan nan nan nan nan nan nan nan nan nan nan nan nan nan nan nan nan nan nan nan nan nan nan nan nan nan nan nan nan nan nan nan nan nan nan nan nan nan 253 256 255 254 258 262 269 278 285 287 280 271 264 265 269 268 267 268 268 267 266 267 268 270 273 275 275 283 283 285 288 290 293 295 299 300 299 299 300 301 300 300 298 294 292 290 288
nan nan nan nan nan nan nan nan nan nan nan nan nan nan nan nan nan nan nan nan nan nan nan nan nan nan nan nan nan nan nan nan nan nan nan nan nan nan nan 246 249 252 254 255 260 267 274 279 278 268 260 257 260 267 262 265 264 264 264 262 264 267 266 268 272 277 283 282 283 287 291 294 296 294 293 292 292 292 294 297 298 297 292 288 287 285
nan nan nan nan nan nan nan nan nan nan nan nan nan nan nan nan nan nan nan nan nan nan nan nan nan nan nan nan nan nan nan nan nan nan nan nan nan nan 246 244 248 251 255 257 260 265 272 271 272 267 263 256 256 260 261 265 264 264 260 259 261 262 262 268 273 278 280 281 286 289 291 292 293 296 298 298 298 295 291 293 293 291 287 285 288 290
nan nan 218 nan nan nan nan nan nan nan nan nan nan nan nan nan nan nan nan nan nan nan nan nan nan nan nan nan nan nan nan nan nan nan nan nan nan nan 248 248 250 253 258 263 263 266 272 274 273 260 254 259 263 264 261 260 253 252 254 257 258 260 267 267 273 277 279 285 288 289 290 291 294 295 294 293 294 292 292 291 289 285 286 290 292 294
nan nan nan nan nan nan nan nan nan nan nan nan nan nan nan nan nan nan nan nan nan nan nan nan nan nan nan nan nan nan nan nan nan nan nan nan nan nan 254 256 255 253 251 252 254 257 262 261 261 258 256 253 253 256 258 254 252 249 248 252 256 259 262 266 267 271 275 282 284 285 288 289 289 289 290 288 288 290 292 294 293 292 289 289 294 296
nan nan nan nan nan nan nan nan nan nan nan nan nan nan nan nan nan nan nan nan nan nan nan nan nan nan nan nan nan nan nan nan nan nan nan nan nan nan 258 256 252 247 247 253 258 265 271 265 263 261 256 253 251 248 244 248 249 253 251 254 254 257 264 268 272 275 281 281 280 280 280 283 286 288 288 289 289 290 293 293 293 nan nan 296 296 295
nan nan nan nan nan nan nan nan nan nan nan nan nan nan nan nan nan nan nan nan nan nan nan nan nan nan nan nan nan nan nan nan nan nan nan nan nan nan 264 261 256 254 253 260 267 273 276 265 255 249 246 244 243 241 243 249 254 254 253 256 260 269 275 276 276 279 279 277 278 284 288 287 285 284 282 284 286 288 290 288 288 290 290 293 300 295
nan nan nan nan nan nan nan nan nan nan nan nan nan nan nan nan nan nan nan nan nan nan nan nan nan nan nan nan nan nan nan nan nan nan nan nan nan 263 263 266 266 257 260 270 276 272 266 257 246 240 237 237 242 244 248 249 249 253 258 263 265 270 275 276 276 277 276 275 280 286 286 285 279 279 279 282 283 284 285 286 287 287 291 301 302 298
nan nan nan nan nan nan nan nan nan 170 nan nan nan nan nan nan nan nan nan nan nan nan nan nan nan nan nan nan nan nan nan nan nan nan nan nan nan 261 265 270 267 271 272 278 277 263 257 251 246 243 244 247 247 248 252 253 257 260 264 266 268 275 278 276 275 272 273 276 283 285 280 278 276 276 280 282 282 284 283 282 282 287 297 303 303 298
nan nan nan nan nan nan nan nan 174 172 nan nan nan nan nan nan nan nan nan nan nan nan nan nan nan nan nan nan nan nan nan nan nan nan nan nan nan 255 261 260 257 251 269 275 265 256 245 242 242 238 240 240 240 243 250 255 258 260 263 267 268 275 275 273 271 270 274 278 283 282 278 275 274 278 279 281 280 283 279 280 285 292 300 304 304 303
nan nan nan nan nan nan nan nan nan 168 nan nan nan nan nan nan nan nan nan nan nan nan nan nan nan nan nan nan nan nan nan nan nan nan nan nan nan 256 259 258 254 270 279 272 264 252 240 241 245 243 240 240 241 245 250 256 259 261 263 263 267 269 272 269 268 271 274 281 285 283 277 274 276 280 281 280 277 281 280 283 290 298 305 306 306 305
nan nan nan nan nan nan nan nan nan nan nan nan nan nan nan nan nan nan nan nan nan nan nan nan nan nan nan nan nan nan nan nan nan nan nan nan nan 258 256 254 252 273 312 304 270 250 251 250 246 240 237 234 239 246 252 257 258 257 258 261 260 266 269 268 266 271 277 282 283 281 280 275 277 282 283 279 275 278 282 287 295 301 305 307 306 302
nan nan nan nan nan nan nan 164 nan nan nan nan nan nan nan nan nan nan nan nan nan nan nan nan nan nan nan nan nan nan nan nan nan nan nan nan 253 265 265 259 253 261 296 305 286 267 251 243 246 241 238 237 241 245 249 255 258 256 259 260 260 265 268 266 267 272 279 282 282 277 277 276 278 278 277 274 272 272 279 289 297 303 306 303 301 302
nan nan nan nan nan nan nan 167 nan nan nan nan nan nan nan nan nan nan nan nan nan nan nan nan 162 nan nan 166 nan nan nan nan nan nan nan nan 254 263 266 270 275 260 264 270 267 264 259 254 244 238 237 237 239 243 246 249 255 260 259 260 259 264 264 259 266 274 280 281 279 275 274 273 273 272 270 267 269 273 279 286 295 300 298 296 299 303
nan nan nan nan nan nan 162 165 nan nan nan nan nan nan nan nan nan nan nan nan nan nan nan nan 168 167 167 171 179 186 nan nan nan nan nan 257 258 261 263 266 260 249 254 263 266 264 260 251 241 238 236 238 242 246 250 251 254 254 250 251 254 259 263 262 267 276 280 280 278 274 269 266 265 264 264 266 269 273 279 285 292 295 296 295 nan nan
nan nan nan nan nan nan nan nan nan nan nan nan nan nan nan nan nan nan nan nan nan nan nan 158 164 160 160 170 178 181 192 nan nan nan 237 248 260 265 265 263 259 250 250 257 256 257 255 253 245 241 241 241 246 250 253 258 263 262 261 257 255 259 260 264 270 277 280 280 274 269 266 265 263 264 265 267 271 274 276 281 288 293 296 299 nan nan
nan nan nan nan nan nan nan nan nan nan nan nan nan nan nan nan nan nan nan nan nan nan nan 159 166 166 163 169 176 184 nan nan nan 234 244 254 262 271 273 267 263 256 253 255 254 255 251 247 244 243 246 248 251 256 259 262 261 254 252 249 252 258 261 265 271 276 278 275 269 267 264 263 262 264 268 270 270 271 275 278 280 286 291 293 nan nan
nan nan nan nan nan nan nan nan nan nan nan nan nan nan nan nan nan nan nan nan nan nan nan nan 171 168 163 171 173 nan 211 225 233 239 246 253 268 280 285 279 266 258 255 252 256 255 250 246 244 247 250 250 252 255 254 256 255 254 253 249 253 255 260 266 272 276 276 271 266 265 265 262 264 267 268 269 273 276 274 272 275 280 284 287 nan nan
nan nan nan nan nan nan nan nan nan nan nan nan nan nan nan nan nan nan nan nan nan nan nan nan nan 169 169 172 182 195 206 222 232 246 253 252 266 278 290 284 262 250 253 257 256 254 252 252 249 252 251 249 252 254 254 254 252 252 248 248 250 254 261 266 271 273 272 268 265 263 262 262 266 268 268 270 272 274 273 275 277 278 281 nan nan nan
nan nan nan nan nan nan nan nan nan nan nan nan nan nan nan nan nan nan nan nan nan nan 167 nan nan nan 177 179 193 207 217 223 229 225 230 260 255 259 273 270 249 233 241 251 260 261 252 241 236 239 249 252 250 247 241 241 242 236 234 238 246 257 260 263 266 269 268 263 261 262 260 262 265 267 268 269 272 274 276 278 283 283 283 nan nan nan
nan nan nan nan nan nan nan nan nan nan nan nan nan nan nan nan nan nan nan nan nan nan nan 176 nan 175 177 182 196 209 215 217 222 227 226 228 255 261 251 237 221 216 230 238 236 234 239 242 238 235 233 234 239 236 237 236 234 233 233 239 248 253 261 264 262 262 261 257 254 258 260 262 264 266 267 270 273 277 281 284 284 287 285 286 nan nan
nan nan nan nan nan nan nan nan nan nan nan nan nan nan nan nan nan nan nan nan nan nan nan nan 173 174 175 184 195 204 220 222 224 221 220 223 229 240 257 247 226 221 227 230 241 237 238 238 246 251 249 240 240 236 239 239 234 235 235 240 248 252 260 264 263 260 257 251 249 255 260 262 263 265 268 272 274 280 284 285 289 292 286 286 286 nan
nan nan nan nan nan nan nan nan nan nan nan nan nan nan nan nan nan nan nan nan nan nan nan nan 169 170 179 185 183 198 204 217 222 214 211 221 223 225 240 244 246 236 235 233 237 240 239 242 242 239 239 241 241 241 237 232 231 233 238 243 248 257 260 263 265 263 258 252 249 253 258 261 264 265 269 272 277 280 283 286 288 286 283 286 284 nan
nan nan nan nan nan nan nan nan nan nan nan nan nan nan 185 163 155 nan nan nan nan nan nan nan nan 169 174 186 191 192 209 222 221 212 204 203 221 223 215 218 212 210 222 228 219 219 223 224 227 231 238 240 238 236 229 231 232 236 241 245 251 260 264 265 264 261 259 256 254 255 255 257 262 266 269 272 280 283 282 282 279 282 282 286 286 284
nan nan nan nan nan nan nan nan nan nan nan nan 168 166 170 172 164 nan nan nan nan nan 166 nan nan 169 185 189 nan 205 212 223 220 211 197 197 199 206 219 210 217 222 218 222 232 234 232 232 235 236 234 236 237 229 229 232 236 239 242 246 252 259 263 265 264 264 263 260 257 255 254 255 259 264 270 276 279 280 282 282 281 278 279 280 nan nan
nan nan nan nan nan nan nan nan nan nan nan 179 166 160 165 173 166 nan nan nan nan 166 160 nan 171 180 184 190 nan nan 223 223 214 200 187 191 193 192 194 199 216 218 221 226 221 227 233 233 234 234 237 241 237 232 233 233 234 237 240 243 247 255 261 262 263 260 258 258 259 257 255 255 261 265 271 274 272 270 273 271 273 277 278 276 nan nan
nan nan nan nan nan nan nan nan nan nan nan 186 171 162 169 177 nan nan nan nan 165 162 159 nan 178 187 190 195 201 217 207 212 215 205 200 203 201 196 199 195 191 205 223 227 229 232 230 229 238 241 241 235 234 231 231 231 232 234 235 238 246 253 253 251 249 253 257 259 261 260 260 256 263 269 267 269 269 269 271 274 279 279 279 278 274 nan
nan nan nan nan nan nan nan nan nan nan 199 196 181 168 171 nan nan nan 151 149 155 164 177 191 191 190 198 204 211 219 226 223 223 221 221 219 216 213 210 207 205 203 204 208 224 231 227 223 221 225 226 224 229 228 227 228 230 231 235 236 241 244 245 246 246 247 249 254 258 259 259 261 258 265 267 270 273 275 275 272 276 279 280 276 276 nan
nan nan nan nan nan nan nan nan nan nan 198 202 185 178 190 186 161 156 160 157 166 169 185 193 197 197 209 210 210 221 227 225 227 228 226 222 225 224 222 219 219 213 211 211 208 209 223 221 221 226 225 220 220 220 221 227 231 231 234 238 232 229 232 239 241 241 243 246 251 254 258 259 268 270 267 274 276 275 274 273 275 273 274 278 278 nan
nan nan nan nan nan 169 nan nan nan nan 184 195 201 198 175 168 155 160 169 172 167 181 183 191 195 200 208 217 217 216 222 231 230 238 235 232 226 221 224 230 231 230 228 223 217 210 204 206 212 215 216 215 213 213 218 228 229 231 236 236 231 230 232 236 239 243 248 252 258 264 267 271 275 278 276 277 276 273 274 274 273 275 278 281 283 281
nan nan nan nan nan nan nan nan nan 185 188 nan 206 199 180 160 168 174 189 190 177 187 190 195 196 200 207 212 207 212 218 215 224 233 247 248 242 234 225 219 223 231 233 230 225 221 219 215 208 199 197 198 205 207 214 221 230 232 238 228 230 237 237 239 244 252 258 262 266 272 275 276 279 278 275 276 278 276 275 274 276 277 278 281 279 279
nan nan nan nan nan nan nan nan nan 181 187 193 nan 200 191 182 181 185 196 196 187 187 197 204 198 203 206 203 211 203 210 211 219 221 230 237 243 244 241 237 234 229 229 238 235 236 233 225 216 205 195 187 194 202 206 215 230 239 231 233 234 236 240 245 252 258 265 269 275 280 284 286 281 279 279 279 279 280 280 282 282 282 282 280 280 280
nan nan nan nan 181 nan nan nan 177 178 181 187 191 193 201 206 199 189 196 200 192 188 201 202 203 205 210 212 224 227 226 225 228 227 230 236 243 246 250 255 252 250 253 249 237 229 223 215 217 221 205 186 187 200 204 217 220 227 230 236 238 239 244 250 258 263 268 273 276 281 288 290 286 283 283 282 280 280 281 281 281 283 286 287 287 285
nan nan nan nan nan nan nan nan 172 nan nan 178 183 189 197 201 nan 190 200 208 203 192 205 209 212 220 226 230 232 241 237 233 241 243 243 242 239 241 248 252 253 249 243 237 236 231 224 214 212 215 208 199 196 203 208 212 219 225 233 238 243 245 250 255 261 267 270 275 279 282 287 286 287 288 285 285 286 286 285 286 288 288 291 292 290 289
nan nan nan nan nan nan nan nan 175 177 nan 185 nan 188 192 201 203 201 205 206 201 202 211 219 222 231 240 245 245 247 246 239 240 248 254 248 243 240 245 250 258 257 246 239 232 220 219 218 214 210 208 206 207 211 216 218 219 228 238 239 243 253 257 255 259 265 270 273 276 278 278 279 284 286 286 285 285 283 283 289 289 289 285 278 281 286
nan nan nan nan nan nan nan nan 176 nan nan nan 189 nan 195 203 208 207 204 201 203 212 213 222 227 233 237 239 246 248 249 246 242 246 250 246 246 249 250 252 257 260 250 233 226 217 217 217 215 212 215 213 213 215 218 222 224 227 232 240 246 250 256 262 264 265 269 271 275 275 276 277 281 283 284 285 285 280 268 253 261 270 282 286 287 289
nan nan nan nan nan nan nan 141 nan nan nan nan 189 nan 203 206 205 204 207 211 220 222 218 221 227 230 237 236 237 243 242 243 244 244 245 241 241 240 246 251 260 265 256 239 226 221 221 214 215 223 228 223 218 219 222 224 229 234 236 242 250 257 262 264 263 265 268 273 275 279 279 279 280 281 281 281 280 277 276 273 262 255 254 262 277 283